SCP
-0 0 0 -0 -0 -0 0 0 0 -0 -0 -0 -0 0 0 0 0 0 -0 -0 -0 0 0 -0 -0 -0 -0 -0 0 0 0 0 0 0 0 0 0 0 0 0 -0 -0 0 0 0 0 0 0 0
-0 0 0 0 0 0 0 0 0 0 0 -0 -0 -0 -0 0 0 -0 0 0 0 0 0 0 -0 -0 -0 -0 0 0 0 0 0 0 0 0 0 0 0 0 0 -0 -0 -0 -0 -0 -0 -0 0
-0 -0 0 0 0 0 0 0 0 0 -0 0 0 0 0 0 -0 0 -0 -0 -0 -0 0 -0 -0 -0 -0 -0 -0 -0 -0 0 0 0 0 0 0 0 -0 -0 -0 -0 -0 -0 0 0 0 0 0
-0 0 0 0 0 0 0 -0 0 0 0 -0 0 0 0 -0 -0 -0 -0 -0 -0 0 0 -0 -0 -0 -0 -0 -0 -0 -0 -0 -0 -0 0 0 -0 -0 -0 -0 0 0 0 0 0 0 0 0 0
0 0 0 0 0 0 0 0 0 0 -0 0 -0 0 0 -0 -0 -0 -0 -0 -0 0 -0 0 0 0 0 0 0 -0 -0 0 0 0 0 0 0 0 0 0 -0 -0 0 0 0 0 0 -0 -0
0 0 0 0 0 0 0 0 0 -0 -0 0 -0 0 0 -0 -0 -0 0 0 0 0 -0 -0 0 0 -0 -0 -0 -0 -0 -0 0 0 0 0 0 -0 -0 0 0 0 0 0 0 0 0 0 -0
0 0 0 0 0 0 0 -0 -0 -0 -0 0 -0 0 -0 -0 -0 -0 -0 0 0 -0 -0 -0 -0 -0 0 -0 -0 -0 -0 0 0 0 0 -0 0 0 -0 0 0 0 0 0 0 0 0 0 0
0 0 0 -0 0 0 -0 -0 -0 0 -0 -0 -0 0 0 -0 -0 -0 -0 0 0 0 -0 -0 -0 -0 -0 -0 -0 0 0 0 0 0 0 0 0 0 0 0 0 0 0 0 0 0 0 0 0
0 0 -0 -0 0 0 -0 0 0 0 -0 -0 0 0 0 -0 -0 -0 -0 -0 -0 -0 0 0 0 0 0 0 0 0 0 0 0 0 0 0 0 0 0 0 0 0 0 0 0 0 0 0 1
0 0 0 0 0 0 -0 -0 -0 0 0 0 0 -0 0 -0 -0 -0 -0 -0 -0 0 0 0 0 0 0 0 0 0 0 0 0 0 0 0 0 0 0 0 0 0 0 0 0 0 0 0 0
0 0 0 0 0 -0 0 -0 0 -0 0 -0 -0 -0 -0 -0 0 -0 0 0 0 0 0 0 0 0 0 0 0 0 0 0 0 0 0 0 0 0 0 0 0 0 0 0 0 0 0 0 0
0 0 0 0 0 0 -0 0 0 0 0 0 0 -0 0 -0 0 -0 -0 0 0 0 0 0 0 0 0 0 0 0 0 0 0 0 0 0 0 0 0 0 0 0 0 0 0 0 0 0 0
0 0 0 0 0 0 0 0 0 0 0 0 0 0 0 0 -0 -0 0 0 0 0 0 0 0 0 0 0 0 0 0 0 0 0 0 0 0 0 0 0 0 0 0 0 0 0 0 0 0
0 0 0 0 0 0 0 0 0 0 0 0 0 0 0 -0 -0 0 0 0 0 0 0 0 0 0 0 0 0 0 0 0 0 0 0 0 0 0 0 0 0 0 0 0 0 0 0 0 0
-0 0 0 0 0 0 0 0 0 0 0 0 0 0 0 -0 0 0 0 0 0 0 0 0 0 0 0 0 0 0 0 0 0 0 0 0 0 0 0 0 0 0 0 0 0 0 0 0 0
0 0 0 0 0 0 0 0 0 0 0 0 0 0 0 0 0 0 0 0 0 0 0 0 0 0 0 0 0 0 0 0 0 0 0 0 0 0 0 0 0 0 0 0 0 0 0 0 0
0 0 0 0 0 0 0 1 0 0 0 0 0 0 0 0 0 0 0 0 0 0 0 0 0 0 0 0 0 0 0 0 0 0 0 0 0 0 0 0 0 0 0 0 0 0 0 0 0
0 0 0 -0 0 0 0 0 -0 0 0 0 0 0 0 0 0 0 0 0 0 0 0 0 0 0 0 0 0 0 0 0 0 0 0 0 0 0 0 0 0 0 0 0 0 0 0 0 0
-0 -0 0 0 -0 0 0 1 0 0 0 0 0 0 0 0 0 0 0 0 0 0 0 0 0 0 0 0 0 0 0 0 0 0 0 0 0 0 0 0 0 0 0 0 0 0 0 0 0
0 0 0 0 0 0 0 0 0 0 0 0 0 0 0 0 0 0 0 0 0 0 0 0 0 0 0 0 0 0 0 0 0 0 0 0 0 0 0 0 0 0 0 0 0 0 0 0 0
0 0 0 0 0 0 0 1 0 0 1 1 0 0 0 0 -0 0 0 0 0 0 0 0 0 0 0 0 0 0 0 0 0 0 0 0 0 0 0 0 0 0 0 0 0 0 0 0 0
0 0 0 0 0 0 0 0 0 0 0 1 0 0 0 0 -0 0 0 0 0 0 0 0 0 0 0 0 0 0 0 0 0 0 0 0 0 0 0 0 0 0 0 0 -0 0 0 0 0
0 0 0 0 0 0 0 0 0 0 0 0 0 0 0 0 0 0 0 0 0 0 0 0 0 0 0 0 0 0 0 0 0 0 0 0 0 0 0 0 0 0 -0 0 0 0 0 0 0
0 0 0 0 0 0 0 0 0 0 0 0 0 0 0 0 0 -0 -0 0 0 0 0 0 0 0 0 0 0 0 0 0 0 0 0 0 0 0 0 0 0 0 0 0 -0 0 -0 0 0
0 0 0 0 0 0 0 0 0 -0 0 0 0 0 0 0 0 0 0 0 0 0 0 0 0 0 0 0 0 0 0 0 0 0 0 0 0 0 0 0 0 0 0 0 -0 -0 0 0 0
0 0 0 0 0 0 0 0 0 0 0 0 0 0 -0 0 0 -0 0 0 0 0 0 0 0 0 0 0 0 0 0 0 0 0 0 0 0 0 0 0 0 0 0 0 0 0 0 0 0
0 0 0 0 0 0 0 0 0 0 0 0 0 0 -0 -0 0 0 0 0 0 0 0 0 0 0 0 0 0 0 0 0 0 0 0 0 0 0 0 0 0 0 0 0 0 0 0 0 0
0 0 0 0 0 0 0 0 0 0 0 0 0 0 0 0 0 0 0 0 0 0 0 0 0 0 0 0 0 0 0 0 0 0 0 0 0 0 0 0 0 0 0 0 0 0 0 0 0
0 0 0 0 0 0 0 0 0 0 0 0 0 0 0 0 0 0 0 0 0 0 0 0 0 0 0 0 0 0 0 0 0 0 0 0 0 0 0 0 0 0 0 0 0 0 0 0 0
0 0 0 0 0 0 0 0 0 0 0 0 0 0 0 0 0 -0 0 0 0 0 0 0 0 0 0 0 0 0 0 0 0 0 0 0 0 -0 0 0 0 0 0 0 0 0 0 0 0
Wind_Speed_500mb
25 27 22 1 8 10 8 6 7 26 11 40 32 17 20 21 6 9 28 29 23 25 23 20 19 20 21 21 19 18 17 16 14 13 12 12 12 13 14 15 15 15 14 13 12 10 9 8 8
28 30 5 6 9 7 8 6 4 26 31 45 23 19 28 12 27 37 30 23 17 21 22 21 19 17 18 18 17 16 15 14 13 14 15 16 16 16 15 14 13 14 14 13 13 12 11 11 12
29 18 6 8 7 10 11 7 12 23 38 35 14 11 10 14 34 33 27 21 15 22 22 22 19 16 16 18 16 15 16 16 17 18 18 17 16 15 14 14 15 16 16 16 16 15 15 16 16
14 3 2 8 6 8 5 2 30 25 47 33 9 10 20 30 33 31 29 19 28 26 24 22 21 19 19 20 20 20 19 19 20 21 21 20 20 19 18 18 18 18 19 18 19 19 19 20 21
15 2 6 9 8 2 3 20 36 38 61 52 31 14 27 30 38 38 31 28 35 36 31 30 29 29 29 27 25 25 23 24 24 23 22 19 19 19 18 21 23 22 20 20 19 19 20 20 20
3 3 6 2 9 11 2 21 29 20 30 18 36 33 22 40 44 41 36 40 41 45 42 38 37 37 37 33 29 26 24 23 21 17 13 14 10 12 14 19 24 24 22 18 16 17 17 17 16
11 8 10 10 11 10 12 48 10 21 42 30 52 19 31 44 37 48 43 39 40 41 39 37 41 36 31 29 26 22 21 19 16 11 7 7 8 12 12 12 10 14 14 13 10 13 16 16 18
4 8 7 7 14 11 32 41 27 27 28 46 49 13 28 55 59 53 49 44 39 42 38 40 33 32 25 19 19 16 13 13 12 12 16 12 14 13 16 15 6 8 12 11 4 5 6 7 9
8 7 9 9 11 13 52 15 30 21 42 44 21 55 65 68 69 66 52 47 43 39 34 34 30 24 18 14 15 8 6 12 16 19 22 21 20 17 13 15 11 11 13 13 9 11 11 8 7
10 8 13 16 14 23 49 33 41 24 50 27 63 55 68 69 69 73 57 50 43 40 35 29 25 23 24 18 14 5 7 12 16 25 32 21 15 16 18 17 18 22 23 24 21 21 22 19 16
6 12 16 28 5 55 40 28 27 48 24 72 68 50 66 77 71 71 58 51 46 40 35 31 26 25 22 19 12 9 14 20 25 24 20 19 15 16 17 17 31 31 31 31 31 30 31 31 28
3 23 29 46 33 44 51 39 15 31 35 70 63 68 77 74 60 57 51 45 40 36 33 31 26 24 20 14 11 11 20 25 25 23 20 19 17 16 18 21 26 31 33 33 35 39 41 39 40
11 15 41 58 30 65 62 21 14 19 60 50 69 72 68 58 50 41 37 34 31 26 23 24 24 22 19 16 13 13 17 23 19 22 22 21 22 23 21 22 29 32 32 35 37 39 39 38 39
23 28 40 12 51 61 39 27 32 37 52 62 65 60 55 48 45 42 36 32 24 19 14 20 19 16 12 11 9 4 4 13 17 21 26 31 33 30 27 26 30 33 30 29 32 34 35 37 40
16 10 18 25 48 18 56 4 14 69 60 61 56 50 48 46 38 35 33 29 23 19 13 17 19 18 16 15 9 2 6 12 20 27 32 37 40 40 35 30 31 32 31 28 28 33 34 38 36
11 5 2 8 30 46 29 14 34 74 66 60 59 57 57 50 47 42 36 29 22 16 18 20 22 21 15 10 6 6 10 18 25 29 34 36 36 38 36 32 29 28 28 26 28 32 34 33 29
13 8 6 14 15 19 1 13 34 55 53 52 54 64 63 57 48 43 35 25 18 18 18 20 22 20 14 9 6 5 5 12 18 25 34 37 41 39 41 43 36 26 20 22 22 30 28 21 25
10 7 7 11 12 14 14 17 41 59 63 57 57 68 68 58 48 39 29 22 20 22 22 23 22 18 13 7 2 5 9 11 16 24 27 31 34 34 41 48 28 19 17 22 24 25 13 30 28
9 9 16 14 17 16 18 26 45 51 54 49 51 56 59 56 49 36 28 24 26 30 29 24 18 14 9 6 7 2 8 11 14 18 23 27 34 38 36 27 26 21 22 22 22 29 22 34 32
13 15 25 17 26 17 29 30 40 44 51 62 61 59 69 59 54 44 33 26 28 34 33 24 15 9 8 14 11 6 11 14 20 24 30 35 35 27 26 26 23 24 22 24 25 24 24 26 33
21 14 19 19 7 14 22 9 21 19 17 36 44 45 53 63 67 52 41 35 33 34 32 23 13 6 10 16 13 10 14 19 23 30 30 23 24 25 26 23 23 30 29 34 38 31 19 21 25
16 19 19 16 10 8 12 15 13 15 9 26 56 82 85 88 71 60 50 39 33 33 29 22 12 4 11 18 20 15 11 14 21 27 29 30 31 31 27 27 30 29 29 32 37 36 41 24 27
29 20 14 11 10 6 1 10 8 18 17 20 51 73 77 78 72 62 51 37 32 30 25 18 10 1 11 19 23 18 18 21 27 28 34 35 32 30 28 27 28 24 27 29 30 34 46 37 35
19 7 9 8 9 4 11 10 6 14 34 18 40 53 61 72 68 58 49 41 33 27 24 18 10 1 11 20 20 18 19 27 36 38 35 30 32 34 31 33 33 23 41 26 26 26 36 43 36
7 13 5 8 6 11 7 9 13 27 19 33 40 52 73 83 75 67 62 51 42 34 23 21 13 3 9 18 15 11 18 28 31 32 32 29 28 27 27 29 33 29 34 43 37 32 34 39 38
16 18 12 14 7 9 7 11 8 16 4 21 18 47 73 79 70 72 65 55 49 34 29 23 14 5 5 15 9 12 22 23 23 21 20 15 18 17 19 20 25 19 24 24 24 26 29 29 31
12 6 17 11 2 4 4 3 7 12 14 20 38 55 72 83 81 82 67 64 53 42 35 27 16 10 2 12 4 22 23 20 17 17 10 10 11 14 16 17 13 16 20 20 20 17 24 23 24
15 12 4 5 12 9 5 5 9 9 18 26 34 60 74 81 81 78 76 70 56 50 38 33 20 10 1 6 12 24 20 17 13 18 23 26 16 9 14 13 10 12 13 12 12 14 23 20 22
8 4 7 8 11 12 7 11 14 22 19 33 45 65 83 88 86 90 82 70 65 60 51 38 24 15 7 2 15 21 18 15 19 20 16 14 22 18 15 10 8 14 18 13 8 6 18 23 28
12 12 14 11 10 5 10 11 8 21 24 43 53 70 90 96 95 88 86 79 76 69 56 39 27 20 8 1 18 22 20 18 16 11 6 6 10 21 5 7 11 17 25 18 8 4 11 18 28
Wind_Direction_500mb
340 336 326 265 64 59 353 326 42 20 72 46 79 85 85 36 359 147 118 138 131 121 124 127 119 116 115 115 115 115 117 116 116 113 102 87 71 57 47 37 27 21 15 12 12 13 12 7 358
333 329 344 137 94 68 291 310 13 61 28 339 340 78 79 69 97 133 128 119 112 123 132 129 122 118 114 111 112 111 105 99 88 73 63 55 50 43 36 27 17 9 2 357 353 346 338 331 326
334 326 201 126 115 159 192 212 97 74 34 333 272 20 61 108 118 130 119 113 109 125 131 125 120 113 108 104 101 93 85 78 70 65 58 54 50 48 41 34 25 17 9 360 352 345 338 332 327
339 339 230 86 154 316 319 266 90 71 39 309 326 60 93 127 136 134 129 99 115 118 122 115 111 104 97 93 91 84 81 78 73 71 67 63 61 54 49 38 25 11 0 355 349 342 335 328 324
342 212 53 105 129 131 266 108 110 127 159 236 212 145 126 133 147 139 126 105 109 108 105 103 101 97 92 88 88 88 86 86 84 85 80 71 62 45 37 30 24 11 350 337 340 336 324 314 309
348 90 52 192 113 165 109 142 166 109 185 137 160 140 130 142 155 150 129 110 106 103 99 101 99 95 92 88 83 81 79 77 77 78 69 58 44 35 30 37 34 35 30 34 32 22 9 351 333
146 97 225 181 135 144 139 172 202 147 165 139 140 121 144 140 161 153 132 123 111 107 104 105 97 91 91 91 85 78 75 75 68 47 7 6 352 353 357 13 47 24 21 20 26 27 21 12 10
171 106 272 259 145 177 146 179 175 165 195 148 131 149 153 140 162 151 137 130 115 118 107 104 106 92 94 82 73 74 63 61 49 19 350 320 318 317 320 327 334 349 333 337 316 336 337 351 353
211 74 256 239 120 129 153 169 174 182 151 170 198 151 140 142 149 149 135 139 137 128 120 121 117 115 109 94 84 81 18 346 352 344 334 321 300 296 292 307 287 280 281 287 281 284 292 296 277
129 134 243 185 139 156 178 173 180 152 149 142 147 152 137 146 147 150 150 149 145 142 140 139 147 144 130 130 145 215 279 295 318 322 317 323 302 297 279 261 259 261 262 264 271 276 275 272 273
181 192 242 278 102 148 158 180 162 133 149 151 157 143 153 154 151 153 150 151 150 152 150 150 150 156 164 162 177 246 288 310 323 325 316 317 301 287 278 265 255 254 259 266 266 268 267 267 269
253 250 252 269 123 133 162 167 159 149 162 154 157 154 152 153 155 157 158 157 155 160 162 162 165 165 172 194 214 263 292 302 311 320 331 332 331 314 287 273 266 264 266 268 271 270 266 266 265
182 263 277 272 173 148 149 152 148 173 156 162 156 151 148 148 151 154 156 160 160 166 172 180 191 196 208 232 259 281 295 304 326 333 335 330 324 322 317 291 276 273 274 278 279 275 274 270 269
270 273 277 250 140 147 144 156 147 171 156 152 160 155 155 161 168 165 168 169 175 184 186 184 191 200 203 213 220 233 306 314 331 336 334 331 326 324 312 296 279 280 292 290 286 284 282 284 289
285 280 308 140 133 138 126 152 198 164 159 156 157 153 152 166 174 182 174 178 188 196 183 151 156 153 151 149 148 93 6 327 337 338 335 329 328 335 333 313 296 299 304 300 285 285 289 295 296
343 66 233 274 141 168 168 182 172 170 166 159 152 152 158 160 165 165 169 176 182 202 161 137 140 145 146 126 93 28 358 343 340 332 323 321 335 340 343 335 319 318 317 311 310 312 308 314 308
8 249 206 292 181 157 192 118 174 178 166 152 142 148 155 151 157 163 165 167 174 176 156 154 149 140 118 91 40 352 338 331 307 307 316 329 338 340 339 343 327 320 328 343 351 338 337 353 325
250 312 298 242 281 152 172 171 174 175 162 160 147 146 148 154 156 164 174 179 177 181 175 158 149 136 117 96 97 218 248 281 295 306 318 327 333 339 335 342 355 1 4 359 358 358 22 15 359
237 227 250 270 257 185 194 160 179 172 164 162 147 147 148 157 159 176 187 189 179 164 163 153 148 131 103 50 67 175 265 277 286 304 315 321 328 337 346 17 14 34 13 6 22 26 27 26 21
256 263 277 283 265 186 167 175 174 177 178 171 156 153 161 165 172 179 186 185 178 169 160 155 151 121 56 27 19 349 303 305 305 309 315 324 336 354 25 25 25 38 29 25 23 28 29 38 27
257 233 255 235 338 68 96 50 169 192 175 168 157 152 167 182 178 173 177 181 180 178 168 166 157 104 37 26 5 330 299 296 297 313 333 6 29 40 46 36 35 46 42 47 45 34 40 45 55
246 225 237 229 126 207 131 225 211 158 116 159 161 172 188 188 180 178 183 178 183 186 177 172 172 101 22 8 8 2 336 342 17 31 50 62 61 61 58 54 63 55 47 45 44 48 44 58 56
251 249 217 155 176 118 133 109 283 143 169 178 180 179 187 181 183 179 180 183 183 188 183 180 188 51 17 11 9 17 36 48 52 70 76 76 70 67 63 58 54 45 43 49 49 50 48 61 61
247 233 39 70 112 128 227 135 243 188 210 159 180 191 173 179 182 181 186 179 181 181 185 193 208 306 14 10 16 34 52 75 85 85 84 83 80 68 58 42 31 60 52 59 41 50 53 49 59
129 66 323 335 13 209 225 95 226 211 208 197 186 163 172 179 184 180 183 183 186 180 184 194 206 251 10 10 19 50 88 100 96 91 88 83 73 61 57 41 45 54 66 60 58 55 48 43 42
218 156 159 210 211 237 261 161 239 221 200 127 179 179 169 178 184 187 190 189 188 183 194 193 203 252 2 12 23 103 118 113 105 98 93 85 80 69 68 56 48 51 58 52 44 43 34 34 36
248 152 194 149 229 78 209 164 328 139 133 125 158 161 167 183 187 191 194 193 190 190 194 197 212 227 31 10 100 118 122 112 98 73 101 103 112 103 85 67 64 35 61 46 40 48 33 31 29
189 185 83 357 170 224 310 145 216 214 168 169 163 169 177 182 184 193 194 193 194 192 192 200 214 221 177 357 150 129 128 119 99 98 78 64 60 106 111 72 61 31 21 26 13 50 37 25 18
300 178 78 126 137 176 177 260 211 197 204 171 181 177 178 181 192 194 193 193 194 190 193 200 209 210 194 33 166 149 139 121 105 91 77 59 44 53 125 63 35 357 348 322 318 359 29 20 7
170 218 155 148 232 136 150 262 225 197 192 175 182 181 183 186 190 192 191 192 190 190 194 204 207 202 183 18 172 144 132 126 111 97 79 50 22 22 89 25 12 9 10 5 9 107 40 27 35
Wind_Speed_850mb
25 27 22 1 8 10 8 6 7 26 11 40 32 17 20 21 6 9 28 29 23 25 23 20 19 20 21 21 19 18 17 16 14 13 12 12 12 13 14 15 15 15 14 13 12 10 9 8 8
28 30 5 6 9 7 8 6 4 26 31 45 23 19 28 12 27 37 30 23 17 21 22 21 19 17 18 18 17 16 15 14 13 14 15 16 16 16 15 14 13 14 14 13 13 12 11 11 12
29 18 6 8 7 10 11 7 12 23 38 35 14 11 10 14 34 33 27 21 15 22 22 22 19 16 16 18 16 15 16 16 17 18 18 17 16 15 14 14 15 16 16 16 16 15 15 16 16
14 3 2 8 6 8 5 2 30 25 47 33 9 10 20 30 33 31 29 19 28 26 24 22 21 19 19 20 20 20 19 19 20 21 21 20 20 19 18 18 18 18 19 18 19 19 19 20 21
15 2 6 9 8 2 3 20 36 38 61 52 31 14 27 30 38 38 31 28 35 36 31 30 29 29 29 27 25 25 23 24 24 23 22 19 19 19 18 21 23 22 20 20 19 19 20 20 20
3 3 6 2 9 11 2 21 29 20 30 18 36 33 22 40 44 41 36 40 41 45 42 38 37 37 37 33 29 26 24 23 21 17 13 14 10 12 14 19 24 24 22 18 16 17 17 17 16
11 8 10 10 11 10 12 48 10 21 42 30 52 19 31 44 37 48 43 39 40 41 39 37 41 36 31 29 26 22 21 19 16 11 7 7 8 12 12 12 10 14 14 13 10 13 16 16 18
4 8 7 7 14 11 32 41 27 27 28 46 49 13 28 55 59 53 49 44 39 42 38 40 33 32 25 19 19 16 13 13 12 12 16 12 14 13 16 15 6 8 12 11 4 5 6 7 9
8 7 9 9 11 13 52 15 30 21 42 44 21 55 65 68 69 66 52 47 43 39 34 34 30 24 18 14 15 8 6 12 16 19 22 21 20 17 13 15 11 11 13 13 9 11 11 8 7
10 8 13 16 14 23 49 33 41 24 50 27 63 55 68 69 69 73 57 50 43 40 35 29 25 23 24 18 14 5 7 12 16 25 32 21 15 16 18 17 18 22 23 24 21 21 22 19 16
6 12 16 28 5 55 40 28 27 48 24 72 68 50 66 77 71 71 58 51 46 40 35 31 26 25 22 19 12 9 14 20 25 24 20 19 15 16 17 17 31 31 31 31 31 30 31 31 28
3 23 29 46 33 44 51 39 15 31 35 70 63 68 77 74 60 57 51 45 40 36 33 31 26 24 20 14 11 11 20 25 25 23 20 19 17 16 18 21 26 31 33 33 35 39 41 39 40
11 15 41 58 30 65 62 21 14 19 60 50 69 72 68 58 50 41 37 34 31 26 23 24 24 22 19 16 13 13 17 23 19 22 22 21 22 23 21 22 29 32 32 35 37 39 39 38 39
23 28 40 12 51 61 39 27 32 37 52 62 65 60 55 48 45 42 36 32 24 19 14 20 19 16 12 11 9 4 4 13 17 21 26 31 33 30 27 26 30 33 30 29 32 34 35 37 40
16 10 18 25 48 18 56 4 14 69 60 61 56 50 48 46 38 35 33 29 23 19 13 17 19 18 16 15 9 2 6 12 20 27 32 37 40 40 35 30 31 32 31 28 28 33 34 38 36
11 5 2 8 30 46 29 14 34 74 66 60 59 57 57 50 47 42 36 29 22 16 18 20 22 21 15 10 6 6 10 18 25 29 34 36 36 38 36 32 29 28 28 26 28 32 34 33 29
13 8 6 14 15 19 1 13 34 55 53 52 54 64 63 57 48 43 35 25 18 18 18 20 22 20 14 9 6 5 5 12 18 25 34 37 41 39 41 43 36 26 20 22 22 30 28 21 25
10 7 7 11 12 14 14 17 41 59 63 57 57 68 68 58 48 39 29 22 20 22 22 23 22 18 13 7 2 5 9 11 16 24 27 31 34 34 41 48 28 19 17 22 24 25 13 30 28
9 9 16 14 17 16 18 26 45 51 54 49 51 56 59 56 49 36 28 24 26 30 29 24 18 14 9 6 7 2 8 11 14 18 23 27 34 38 36 27 26 21 22 22 22 29 22 34 32
13 15 25 17 26 17 29 30 40 44 51 62 61 59 69 59 54 44 33 26 28 34 33 24 15 9 8 14 11 6 11 14 20 24 30 35 35 27 26 26 23 24 22 24 25 24 24 26 33
21 14 19 19 7 14 22 9 21 19 17 36 44 45 53 63 67 52 41 35 33 34 32 23 13 6 10 16 13 10 14 19 23 30 30 23 24 25 26 23 23 30 29 34 38 31 19 21 25
16 19 19 16 10 8 12 15 13 15 9 26 56 82 85 88 71 60 50 39 33 33 29 22 12 4 11 18 20 15 11 14 21 27 29 30 31 31 27 27 30 29 29 32 37 36 41 24 27
29 20 14 11 10 6 1 10 8 18 17 20 51 73 77 78 72 62 51 37 32 30 25 18 10 1 11 19 23 18 18 21 27 28 34 35 32 30 28 27 28 24 27 29 30 34 46 37 35
19 7 9 8 9 4 11 10 6 14 34 18 40 53 61 72 68 58 49 41 33 27 24 18 10 1 11 20 20 18 19 27 36 38 35 30 32 34 31 33 33 23 41 26 26 26 36 43 36
7 13 5 8 6 11 7 9 13 27 19 33 40 52 73 83 75 67 62 51 42 34 23 21 13 3 9 18 15 11 18 28 31 32 32 29 28 27 27 29 33 29 34 43 37 32 34 39 38
16 18 12 14 7 9 7 11 8 16 4 21 18 47 73 79 70 72 65 55 49 34 29 23 14 5 5 15 9 12 22 23 23 21 20 15 18 17 19 20 25 19 24 24 24 26 29 29 31
12 6 17 11 2 4 4 3 7 12 14 20 38 55 72 83 81 82 67 64 53 42 35 27 16 10 2 12 4 22 23 20 17 17 10 10 11 14 16 17 13 16 20 20 20 17 24 23 24
15 12 4 5 12 9 5 5 9 9 18 26 34 60 74 81 81 78 76 70 56 50 38 33 20 10 1 6 12 24 20 17 13 18 23 26 16 9 14 13 10 12 13 12 12 14 23 20 22
8 4 7 8 11 12 7 11 14 22 19 33 45 65 83 88 86 90 82 70 65 60 51 38 24 15 7 2 15 21 18 15 19 20 16 14 22 18 15 10 8 14 18 13 8 6 18 23 28
12 12 14 11 10 5 10 11 8 21 24 43 53 70 90 96 95 88 86 79 76 69 56 39 27 20 8 1 18 22 20 18 16 11 6 6 10 21 5 7 11 17 25 18 8 4 11 18 28
Wind_Direction_850mb
340 336 326 265 64 59 353 326 42 20 72 46 79 85 85 36 359 147 118 138 131 121 124 127 119 116 115 115 115 115 117 116 116 113 102 87 71 57 47 37 27 21 15 12 12 13 12 7 358
333 329 344 137 94 68 291 310 13 61 28 339 340 78 79 69 97 133 128 119 112 123 132 129 122 118 114 111 112 111 105 99 88 73 63 55 50 43 36 27 17 9 2 357 353 346 338 331 326
334 326 201 126 115 159 192 212 97 74 34 333 272 20 61 108 118 130 119 113 109 125 131 125 120 113 108 104 101 93 85 78 70 65 58 54 50 48 41 34 25 17 9 360 352 345 338 332 327
339 339 230 86 154 316 319 266 90 71 39 309 326 60 93 127 136 134 129 99 115 118 122 115 111 104 97 93 91 84 81 78 73 71 67 63 61 54 49 38 25 11 0 355 349 342 335 328 324
342 212 53 105 129 131 266 108 110 127 159 236 212 145 126 133 147 139 126 105 109 108 105 103 101 97 92 88 88 88 86 86 84 85 80 71 62 45 37 30 24 11 350 337 340 336 324 314 309
348 90 52 192 113 165 109 142 166 109 185 137 160 140 130 142 155 150 129 110 106 103 99 101 99 95 92 88 83 81 79 77 77 78 69 58 44 35 30 37 34 35 30 34 32 22 9 351 333
146 97 225 181 135 144 139 172 202 147 165 139 140 121 144 140 161 153 132 123 111 107 104 105 97 91 91 91 85 78 75 75 68 47 7 6 352 353 357 13 47 24 21 20 26 27 21 12 10
171 106 272 259 145 177 146 179 175 165 195 148 131 149 153 140 162 151 137 130 115 118 107 104 106 92 94 82 73 74 63 61 49 19 350 320 318 317 320 327 334 349 333 337 316 336 337 351 353
211 74 256 239 120 129 153 169 174 182 151 170 198 151 140 142 149 149 135 139 137 128 120 121 117 115 109 94 84 81 18 346 352 344 334 321 300 296 292 307 287 280 281 287 281 284 292 296 277
129 134 243 185 139 156 178 173 180 152 149 142 147 152 137 146 147 150 150 149 145 142 140 139 147 144 130 130 145 215 279 295 318 322 317 323 302 297 279 261 259 261 262 264 271 276 275 272 273
181 192 242 278 102 148 158 180 162 133 149 151 157 143 153 154 151 153 150 151 150 152 150 150 150 156 164 162 177 246 288 310 323 325 316 317 301 287 278 265 255 254 259 266 266 268 267 267 269
253 250 252 269 123 133 162 167 159 149 162 154 157 154 152 153 155 157 158 157 155 160 162 162 165 165 172 194 214 263 292 302 311 320 331 332 331 314 287 273 266 264 266 268 271 270 266 266 265
182 263 277 272 173 148 149 152 148 173 156 162 156 151 148 148 151 154 156 160 160 166 172 180 191 196 208 232 259 281 295 304 326 333 335 330 324 322 317 291 276 273 274 278 279 275 274 270 269
270 273 277 250 140 147 144 156 147 171 156 152 160 155 155 161 168 165 168 169 175 184 186 184 191 200 203 213 220 233 306 314 331 336 334 331 326 324 312 296 279 280 292 290 286 284 282 284 289
285 280 308 140 133 138 126 152 198 164 159 156 157 153 152 166 174 182 174 178 188 196 183 151 156 153 151 149 148 93 6 327 337 338 335 329 328 335 333 313 296 299 304 300 285 285 289 295 296
343 66 233 274 141 168 168 182 172 170 166 159 152 152 158 160 165 165 169 176 182 202 161 137 140 145 146 126 93 28 358 343 340 332 323 321 335 340 343 335 319 318 317 311 310 312 308 314 308
8 249 206 292 181 157 192 118 174 178 166 152 142 148 155 151 157 163 165 167 174 176 156 154 149 140 118 91 40 352 338 331 307 307 316 329 338 340 339 343 327 320 328 343 351 338 337 353 325
250 312 298 242 281 152 172 171 174 175 162 160 147 146 148 154 156 164 174 179 177 181 175 158 149 136 117 96 97 218 248 281 295 306 318 327 333 339 335 342 355 1 4 359 358 358 22 15 359
237 227 250 270 257 185 194 160 179 172 164 162 147 147 148 157 159 176 187 189 179 164 163 153 148 131 103 50 67 175 265 277 286 304 315 321 328 337 346 17 14 34 13 6 22 26 27 26 21
256 263 277 283 265 186 167 175 174 177 178 171 156 153 161 165 172 179 186 185 178 169 160 155 151 121 56 27 19 349 303 305 305 309 315 324 336 354 25 25 25 38 29 25 23 28 29 38 27
257 233 255 235 338 68 96 50 169 192 175 168 157 152 167 182 178 173 177 181 180 178 168 166 157 104 37 26 5 330 299 296 297 313 333 6 29 40 46 36 35 46 42 47 45 34 40 45 55
246 225 237 229 126 207 131 225 211 158 116 159 161 172 188 188 180 178 183 178 183 186 177 172 172 101 22 8 8 2 336 342 17 31 50 62 61 61 58 54 63 55 47 45 44 48 44 58 56
251 249 217 155 176 118 133 109 283 143 169 178 180 179 187 181 183 179 180 183 183 188 183 180 188 51 17 11 9 17 36 48 52 70 76 76 70 67 63 58 54 45 43 49 49 50 48 61 61
247 233 39 70 112 128 227 135 243 188 210 159 180 191 173 179 182 181 186 179 181 181 185 193 208 306 14 10 16 34 52 75 85 85 84 83 80 68 58 42 31 60 52 59 41 50 53 49 59
129 66 323 335 13 209 225 95 226 211 208 197 186 163 172 179 184 180 183 183 186 180 184 194 206 251 10 10 19 50 88 100 96 91 88 83 73 61 57 41 45 54 66 60 58 55 48 43 42
218 156 159 210 211 237 261 161 239 221 200 127 179 179 169 178 184 187 190 189 188 183 194 193 203 252 2 12 23 103 118 113 105 98 93 85 80 69 68 56 48 51 58 52 44 43 34 34 36
248 152 194 149 229 78 209 164 328 139 133 125 158 161 167 183 187 191 194 193 190 190 194 197 212 227 31 10 100 118 122 112 98 73 101 103 112 103 85 67 64 35 61 46 40 48 33 31 29
189 185 83 357 170 224 310 145 216 214 168 169 163 169 177 182 184 193 194 193 194 192 192 200 214 221 177 357 150 129 128 119 99 98 78 64 60 106 111 72 61 31 21 26 13 50 37 25 18
300 178 78 126 137 176 177 260 211 197 204 171 181 177 178 181 192 194 193 193 194 190 193 200 209 210 194 33 166 149 139 121 105 91 77 59 44 53 125 63 35 357 348 322 318 359 29 20 7
170 218 155 148 232 136 150 262 225 197 192 175 182 181 183 186 190 192 191 192 190 190 194 204 207 202 183 18 172 144 132 126 111 97 79 50 22 22 89 25 12 9 10 5 9 107 40 27 35